Bullhead City, AZ

12:04 PM MST on July 26, 2017 (GMT -0700)
Laughlin-Bullhead International

Weather History for KIFP - August, 2014

Change the Weather History Date:

Monday, August 25, 2014

  Actual Average Record
Temperature  
Mean Temperature 89 °F -  
Max Temperature 98 °F 104 °F 113 °F (1999)
Min Temperature 80 °F 82 °F 68 °F (1989)
Cooling Degree Days 24    
Growing Degree Days 39 (Base 50)    
Moisture  
Dew Point 54 °F    
Average Humidity 30    
Maximum Humidity 43    
Minimum Humidity 20    
Precipitation  
Precipitation 0.00 in - - ()
Sea Level Pressure  
Sea Level Pressure 29.79 in    
Wind  
Wind Speed 9 mph (South)    
Max Wind Speed 24 mph    
Max Gust Speed 31 mph    
Visibility 10 miles    
Events      
Averages and records for this station are not official NWS values.
T = Trace of Precipitation, MM = Missing Value Source: NWS Daily Summary

Daily Weather History Graph

Daily Weather History Graph

Search for Another Location

Airport or City:

Trip Planner

Search our weather history database for the weather conditions in past years. The results will help you decide how hot, cold, wet, or windy it might be!

Date:

Astronomy

Aug. 25, 2014 Rise Set
Actual Time 6:05 AM MST 7:14 PM MST
Civil Twilight 5:39 AM MST 7:40 PM MST
Nautical Twilight 5:08 AM MST 8:11 PM MST
Astronomical Twilight 4:35 AM MST 8:43 PM MST
Moon 6:12 AM MST (8/25) 7:09 PM MST (8/25)
Length of Visible Light 14h 01m
Length of Day
13h 08m
New Moon, 0% of the Moon is Illuminated
Aug 25
New Moon
Sep 2
First Quarter
Sep 8
Full
Sep 15
Last Quarter
Sep 23
New

Hourly Weather History & Observations

Time (MST) Temp. Heat Index Dew Point Humidity Pressure Visibility Wind Dir Wind Speed Gust Speed Precip Events Conditions
12:15 AM 87.8 °F - 42.8 °F 21% 29.76 in 10.0 mi SSW 5.8 mph - N/A   Clear
12:35 AM 86.0 °F - 41.0 °F 20% 29.76 in 10.0 mi South 4.6 mph - N/A   Clear
12:55 AM 86.0 °F - 41.0 °F 20% 29.76 in 10.0 mi SSW 4.6 mph - N/A   Clear
1:15 AM 86.0 °F - 44.6 °F 23% 29.76 in 10.0 mi SSW 4.6 mph - N/A   Clear
1:35 AM 86.0 °F - 42.8 °F 22% 29.76 in 10.0 mi WSW 3.5 mph - N/A   Clear
1:55 AM 86.0 °F - 42.8 °F 22% 29.76 in 10.0 mi WSW 3.5 mph - N/A   Clear
2:15 AM 84.2 °F - 44.6 °F 25% 29.76 in 10.0 mi SE 3.5 mph - N/A   Clear
2:35 AM 84.2 °F - 42.8 °F 23% 29.76 in 10.0 mi Calm Calm - N/A   Clear
2:55 AM 86.0 °F - 41.0 °F 20% 29.76 in 10.0 mi Calm Calm - N/A   Clear
3:15 AM 86.0 °F - 41.0 °F 20% 29.76 in 10.0 mi Calm Calm - N/A   Clear
3:35 AM 84.2 °F - 41.0 °F 22% 29.76 in 10.0 mi Calm Calm - N/A   Clear
3:55 AM 82.4 °F - 41.0 °F 23% 29.76 in 10.0 mi Calm Calm - N/A   Clear
4:15 AM 82.4 °F - 44.6 °F 26% 29.76 in 10.0 mi Calm Calm - N/A   Clear
4:35 AM 82.4 °F - 44.6 °F 26% 29.76 in 10.0 mi ESE 3.5 mph - N/A   Clear
4:55 AM 82.4 °F - 41.0 °F 23% 29.77 in 10.0 mi SSW 3.5 mph - N/A   Clear
5:15 AM 82.4 °F - 41.0 °F 23% 29.77 in 10.0 mi SW 3.5 mph - N/A   Clear
5:35 AM 80.6 °F - 42.8 °F 26% 29.78 in 10.0 mi Calm Calm - N/A   Clear
5:55 AM 80.6 °F - 41.0 °F 24% 29.78 in 10.0 mi Calm Calm - N/A   Clear
6:15 AM 82.4 °F - 42.8 °F 25% 29.79 in 10.0 mi South 5.8 mph - N/A   Clear
6:35 AM 80.6 °F - 46.4 °F 30% 29.80 in 10.0 mi South 5.8 mph - N/A   Clear
6:55 AM 82.4 °F - 48.2 °F 30% 29.81 in 10.0 mi South 5.8 mph - N/A   Clear
7:35 AM 82.4 °F - 51.8 °F 35% 29.82 in 10.0 mi SSW 5.8 mph - N/A   Clear
7:55 AM 82.4 °F 81.7 °F 55.4 °F 39% 29.82 in 10.0 mi SSW 8.1 mph - N/A   Clear
8:15 AM 84.2 °F 83.5 °F 57.2 °F 40% 29.83 in 10.0 mi SSW 6.9 mph 17.3 mph N/A   Clear
8:35 AM 89.6 °F 88.1 °F 57.2 °F 33% 29.82 in 10.0 mi South 19.6 mph 26.5 mph N/A   Clear
8:55 AM 89.6 °F 88.1 °F 57.2 °F 33% 29.83 in 10.0 mi South 18.4 mph 26.5 mph N/A   Clear
9:15 AM 89.6 °F 88.1 °F 57.2 °F 33% 29.83 in 10.0 mi South 19.6 mph 28.8 mph N/A   Clear
9:35 AM 89.6 °F 88.1 °F 57.2 °F 33% 29.84 in 10.0 mi SSW 17.3 mph 25.3 mph N/A   Clear
9:55 AM 89.6 °F 88.1 °F 57.2 °F 33% 29.84 in 10.0 mi SSW 20.7 mph 25.3 mph N/A   Clear
10:15 AM 89.6 °F 88.9 °F 59.0 °F 36% 29.85 in 10.0 mi SSW 20.7 mph 25.3 mph N/A   Clear
10:35 AM 91.4 °F 89.9 °F 57.2 °F 31% 29.85 in 10.0 mi SSW 19.6 mph 28.8 mph N/A   Clear
10:55 AM 89.6 °F 88.9 °F 59.0 °F 36% 29.84 in 10.0 mi SSW 18.4 mph 26.5 mph N/A   Clear
11:15 AM 91.4 °F 90.7 °F 59.0 °F 34% 29.83 in 10.0 mi South 24.2 mph 31.1 mph N/A   Clear
11:35 AM 91.4 °F 91.4 °F 60.8 °F 36% 29.84 in 10.0 mi South 15.0 mph 28.8 mph N/A   Clear
11:55 AM 93.2 °F 92.6 °F 59.0 °F 32% 29.84 in 10.0 mi South 18.4 mph 23.0 mph N/A   Clear
12:15 PM 93.2 °F 92.6 °F 59.0 °F 32% 29.83 in 10.0 mi South 21.9 mph 27.6 mph N/A   Partly Cloudy
12:35 PM 93.2 °F 92.6 °F 59.0 °F 32% 29.83 in 10.0 mi South 15.0 mph 26.5 mph N/A   Clear
12:55 PM 93.2 °F 94.1 °F 62.6 °F 36% 29.82 in 10.0 mi South 18.4 mph 27.6 mph N/A   Clear
1:15 PM 93.2 °F 93.3 °F 60.8 °F 34% 29.82 in 10.0 mi South 17.3 mph 28.8 mph N/A   Clear
1:35 PM 93.2 °F 94.1 °F 62.6 °F 36% 29.82 in 10.0 mi South 19.6 mph 25.3 mph N/A   Clear
1:55 PM 93.2 °F 93.3 °F 60.8 °F 34% 29.81 in 10.0 mi South 20.7 mph 25.3 mph N/A   Clear
2:15 PM 95.0 °F 96.0 °F 62.6 °F 34% 29.80 in 10.0 mi South 18.4 mph 25.3 mph N/A   Clear
2:35 PM 95.0 °F 96.0 °F 62.6 °F 34% 29.79 in 10.0 mi SSW 17.3 mph 24.2 mph N/A   Partly Cloudy
2:55 PM 95.0 °F 95.2 °F 60.8 °F 32% 29.78 in 10.0 mi South 21.9 mph 28.8 mph N/A   Partly Cloudy
3:15 PM 93.2 °F 94.1 °F 62.6 °F 36% 29.78 in 10.0 mi SSW 16.1 mph - N/A   Clear
3:35 PM 95.0 °F 96.0 °F 62.6 °F 34% 29.77 in 10.0 mi South 17.3 mph 24.2 mph N/A   Clear
3:55 PM 95.0 °F 96.0 °F 62.6 °F 34% 29.77 in 10.0 mi South 16.1 mph 19.6 mph N/A   Clear
4:15 PM 95.0 °F 96.0 °F 62.6 °F 34% 29.76 in 10.0 mi South 12.7 mph - N/A   Clear
4:35 PM 95.0 °F 94.4 °F 59.0 °F 30% 29.76 in 10.0 mi South 11.5 mph 19.6 mph N/A   Clear
4:55 PM 95.0 °F 93.7 °F 57.2 °F 28% 29.76 in 10.0 mi South 12.7 mph - N/A   Clear
5:15 PM 95.0 °F 93.7 °F 57.2 °F 28% 29.75 in 10.0 mi SSW 9.2 mph - N/A   Clear
5:35 PM 96.8 °F 95.1 °F 55.4 °F 25% 29.76 in 10.0 mi SW 6.9 mph - N/A   Clear
5:55 PM 96.8 °F 94.4 °F 53.6 °F 23% 29.75 in 10.0 mi South 9.2 mph 16.1 mph N/A   Clear
6:15 PM 96.8 °F - 51.8 °F 22% 29.74 in 10.0 mi South 11.5 mph 16.1 mph N/A   Clear
6:35 PM 98.6 °F - 51.8 °F 21% 29.74 in 10.0 mi SSE 11.5 mph - N/A   Clear
6:55 PM 96.8 °F 94.4 °F 53.6 °F 23% 29.74 in 10.0 mi South 10.4 mph - N/A   Clear
7:15 PM 95.0 °F 93.0 °F 55.4 °F 26% 29.74 in 10.0 mi South 8.1 mph - N/A   Clear
7:35 PM 95.0 °F 93.0 °F 55.4 °F 26% 29.74 in 10.0 mi South 10.4 mph - N/A   Clear
7:55 PM 95.0 °F - 50.0 °F 22% 29.75 in 10.0 mi South 11.5 mph - N/A   Clear
8:15 PM 95.0 °F - 48.2 °F 20% 29.75 in 10.0 mi SSE 12.7 mph - N/A   Clear
8:35 PM 93.2 °F 93.3 °F 60.8 °F 34% 29.76 in 10.0 mi SSE 13.8 mph - N/A   Clear
8:55 PM 93.2 °F 93.3 °F 60.8 °F 34% 29.76 in 10.0 mi SE 13.8 mph - N/A   Clear
9:15 PM 93.2 °F 93.3 °F 60.8 °F 34% 29.77 in 10.0 mi SSE 18.4 mph - N/A   Clear
9:35 PM 93.2 °F 92.6 °F 59.0 °F 32% 29.77 in 10.0 mi SE 18.4 mph - N/A   Clear
9:55 PM 93.2 °F 91.9 °F 57.2 °F 30% 29.78 in 10.0 mi SSE 20.7 mph - N/A   Clear
10:15 PM 93.2 °F 91.3 °F 55.4 °F 28% 29.79 in 10.0 mi SSE 16.1 mph 24.2 mph N/A   Clear
10:35 PM 93.2 °F 90.8 °F 53.6 °F 26% 29.81 in 10.0 mi South 11.5 mph 25.3 mph N/A   Clear
10:55 PM 87.8 °F 87.6 °F 60.8 °F 40% 29.81 in 10.0 mi SW 5.8 mph - N/A   Clear
11:15 PM 87.8 °F 87.6 °F 60.8 °F 40% 29.82 in 10.0 mi WSW 11.5 mph 16.1 mph N/A   Clear
11:35 PM 86.0 °F 86.1 °F 60.8 °F 43% 29.82 in 10.0 mi SW 8.1 mph - N/A   Clear
11:55 PM 86.0 °F 86.1 °F 60.8 °F 43% 29.83 in 10.0 mi SSW 9.2 mph - N/A   Clear